Regional Weather Roundup
Issued by NWS

Home | Current Version | Previous Version | Text Only | Print | Product List | Glossary On
Versions: 1 2 3 4 5 6 7 8 9 10 11 12 13 14 15 16 17 18 19 20 21 22 23 24 25 26 27 28 29 30 31 32 33 34 35 36 37 38 39 40 41 42 43 44 45 46 47 48 49 50
431
ASUS44 KJAN 190003
RWRMS

MISSISSIPPI HOURLY WEATHER ROUNDUP
NATIONAL WEATHER SERVICE JACKSON MS
600 PM CST THU DEC 18 2014

NOTE: "FAIR: INDICATES FEW OR NO CLOUDS BELOW 12,000 FEET WITH NO
SIGNIFICANT WEATHER AND/OR OBSTRUCTIONS TO VISIBILITY.

MSZ001>002-007>008-010>013-018>021-025>028-034>036-190100-
NORTHWEST MISSISSIPPI

CITY           SKY/WX    TMP DP  RH WIND       PRES   REMARKS
CLARKSDALE     CLOUDY    46  41  81 N9        30.21R
CLEVELAND      CLOUDY    48  46  90 NE3       30.18S
GREENWOOD      CLOUDY    51  43  74 CALM      30.18R
6HR MIN TEMP:  48; 6HR MAX TEMP:  52;

GREENVILLE     CLOUDY    50  44  80 NE5       30.17S
6HR MIN TEMP:  48; 6HR MAX TEMP:  51;

GRENADA        CLOUDY    45  41  87 CALM      30.19R
OLIVE BRANCH   CLOUDY    43  39  87 CALM      30.20R
OXFORD         MOCLDY    43  37  81 NE5       30.21R
TUNICA         CLOUDY    45  39  81 N5        30.21R
$$

MSZ003>006-009-014>017-022>024-029>033-037>039-190100-
NORTHEAST MISSISSIPPI

CITY           SKY/WX    TMP DP  RH WIND       PRES   REMARKS
COLUMBUS AFB   NOT AVBL
CORINTH        CLOUDY    45  37  76 CALM      30.18R
GOLDN TRIANGLE CLOUDY    48  36  61 NE5       30.17R
STARKVILLE     CLOUDY    46  41  81 CALM      30.18R
TUPELO         CLOUDY    46  36  68 NE5       30.19R
6HR MIN TEMP:  44; 6HR MAX TEMP:  48;

$$

MSZ040-058-190100-
CENTRAL MISSISSIPPI

CITY           SKY/WX    TMP DP  RH WIND       PRES   REMARKS
JACKSON INTL   MOCLDY    49  46  90 NE3       30.16R
6HR MIN TEMP:  47; 6HR MAX TEMP:  51; 6HR PCP: TRACE;

JACKSON HAWKNS CLOUDY    50  45  83 E3        30.16R
6HR MIN TEMP:  47; 6HR MAX TEMP:  51;

MERIDIAN KEY   CLOUDY    48  42  80 CALM      30.17R
6HR MIN TEMP:  47; 6HR MAX TEMP:  52; 6HR PCP: TRACE;

MERIDIAN NAS   MOCLDY    48  38  68 CALM      30.17F
6HR MIN TEMP:  48; 6HR MAX TEMP:  53; 6HR PCP: TRACE;

RAYMOND        CLOUDY    50  45  81 CALM      30.16S
VICKSBURG      CLOUDY    49  44  83 SE3       30.16R
6HR MIN TEMP:  49; 6HR MAX TEMP:  54;

$$

MSZ059>079-190100-
SOUTH MISSISSIPPI

CITY           SKY/WX    TMP DP  RH WIND       PRES   REMARKS
HATTIESBURG    CLOUDY    50  49  96 CALM      30.16R
6HR MIN TEMP:  50; 6HR MAX TEMP:  63; 6HR PCP:  0.11;

MCCOMB         CLOUDY    50  48  93 E5        30.13S
6HR MIN TEMP:  50; 6HR MAX TEMP:  60; 6HR PCP:  0.26;

NATCHEZ        CLOUDY    50  46  87 NE3       30.14S
6HR MIN TEMP:  48; 6HR MAX TEMP:  50; 6HR PCP:  0.06;

PINE BELT      CLOUDY    48  45  87 CALM      30.16S
6HR MIN TEMP:  48; 6HR MAX TEMP:  59; 6HR PCP:  0.25;

$$

MSZ080>082-190100-
COASTAL MISSISSIPPI

CITY           SKY/WX    TMP DP  RH WIND       PRES   REMARKS
BAY ST LOUIS   MOCLDY    57  48  72 CALM      30.13R
BILOXI         CLOUDY    58  51  77 CALM      30.14R
6HR MIN TEMP:  58; 6HR MAX TEMP:  62;

PASCAGOULA     CLOUDY    58  49  72 CALM      30.14R
6HR MIN TEMP:  57; 6HR MAX TEMP:  68;

GULFPORT       CLOUDY    58  49  72 E3        30.13R
6HR MIN TEMP:  58; 6HR MAX TEMP:  61;

$$



USA.gov is the U.S. government's official web portal to all federal, state and local government web resources and services.